Regional Weather Roundup
Issued by NWS

Home | Current Version | Previous Version | Graphics & Text | Print | Product List | Glossary On
Versions: 1 2 3 4 5 6 7 8 9 10 11 12 13 14 15 16 17 18 19 20 21 22 23 24 25 26 27 28 29 30 31 32 33 34 35 36 37 38 39 40 41 42 43 44 45 46 47 48 49 50
876
ASUS45 KBOI 270010
RWRID

IDAHO REGIONAL WEATHER ROUNDUP
NATIONAL WEATHER SERVICE BOISE ID
600 PM MDT SUN MAR 26 2017

NOTE: "FAIR" INDICATES FEW OR NO CLOUDS BELOW 12000 FEET
WITH NO SIGNIFICANT WEATHER AND/OR OBSTRUCTIONS TO VISIBILITY

IDZ012-014-270100-
SOUTHWEST IDAHO


CITY           SKY/WX    TMP DP  RH WIND       PRES   REMARKS
BOISE          CLOUDY    51  34  52 E6        29.92F
CALDWELL       CLOUDY    51  36  56 E6        29.91F
MOUNTAIN HOME  CLOUDY    50  42  73 NE14      29.91F
$$

IDZ016-017-270100-
SOUTHCENTRAL IDAHO


CITY           SKY/WX    TMP DP  RH WIND       PRES   REMARKS
BURLEY         CLOUDY    47  35  63 W12       29.92R
JEROME         CLOUDY    45  37  73 W17       29.95S
TWIN FALLS     CLOUDY    46  36  68 W9        29.94R
$$

IDZ019>023-270100-
SOUTHEAST IDAHO


CITY           SKY/WX    TMP DP  RH WIND       PRES   REMARKS
IDAHO FALLS    CLOUDY    50  29  44 S12       29.93F
POCATELLO      CLOUDY    50  30  46 S16       29.93S
REXBURG        CLOUDY    49  22  34 SW14      29.92F
$$

IDZ006-010-011-018-031-032-270100-
CENTRAL IDAHO MOUNTAINS


CITY           SKY/WX    TMP DP  RH WIND       PRES   REMARKS
MCCALL         CLOUDY    36  31  82 SE3       29.87S
STANLEY          N/A     36  30  79 SE7       29.90R WCI  30
SALMON         CLOUDY    48  28  46 S15G29    29.85R
CHALLIS        CLOUDY    48  24  39 S9        29.85F
$$

IDZ002-004-006-007-026-270100-
NORTHERN IDAHO


CITY           SKY/WX    TMP DP  RH WIND       PRES   REMARKS
LEWISTON       CLOUDY    49  42  77 SE6       29.84F
LOWELL           N/A     50  41  71 SE5       29.87R
COEUR D`ALENE  LGT RAIN  45  41  86 W9        29.84R
MULLAN PASS    FLURRIES  33  31  92 VRB5      29.79F WCI  29
$$




USA.gov is the U.S. government's official web portal to all federal, state and local government web resources and services.